Guadalajara Don Miguel, Mexico

1:10 AM CDT on April 26, 2017 (GMT -0500)
Don Miguel Hidalgo International

Weather History for MMGL - January, 2013

Change the Weather History Date:

Wednesday, January 30, 2013

  Actual Average Record
Temperature  
Mean Temperature 58 °F -  
Max Temperature 78 °F 75 °F 82 °F (2002)
Min Temperature 39 °F 40 °F 35 °F (1998)
Degree Days  
Heating Degree Days 6    
Growing Degree Days 8 (Base 50)    
Moisture  
Dew Point 33 °F    
Average Humidity 48    
Maximum Humidity 87    
Minimum Humidity 13    
Precipitation  
Precipitation 0.00 in - - ()
Sea Level Pressure  
Sea Level Pressure 30.09 in    
Wind  
Wind Speed 1 mph ()    
Max Wind Speed 10 mph    
Max Gust Speed -    
Visibility 9.1 miles    
Events      
Averages and records for this station are not official NWS values.
T = Trace of Precipitation, MM = Missing Value Source: Averaged Metar Reports

Daily Weather History Graph

Daily Weather History Graph

Search for Another Location

Airport or City:

Trip Planner

Search our weather history database for the weather conditions in past years. The results will help you decide how hot, cold, wet, or windy it might be!

Date:

Astronomy

Jan. 30, 2013 Rise Set
Actual Time 7:30 AM CST 6:43 PM CST
Civil Twilight 7:06 AM CST 7:06 PM CST
Nautical Twilight 6:40 AM CST 7:33 PM CST
Astronomical Twilight 6:13 AM CST 7:59 PM CST
Moon 10:04 PM CST (1/30) 9:34 AM CST (1/30)
Length of Visible Light 11h 59m
Length of Day
11h 13m
Waning Gibbous, 87% of the Moon is Illuminated
Jan 30
Waning Gibbous
Feb 3
Last Quarter
Feb 10
New
Feb 17
First Quarter
Feb 25
Full

Hourly Weather History & Observations

Time (CST) Temp. Dew Point Humidity Pressure Visibility Wind Dir Wind Speed Gust Speed Precip Events Conditions
12:41 AM 48.2 °F 37.4 °F 66% 30.19 in 10.0 mi Calm Calm - N/A   Clear
1:46 AM 46.4 °F 37.4 °F 71% 30.19 in 10.0 mi Calm Calm - N/A   Clear
2:48 AM 46.4 °F 37.4 °F 71% 29.95 in 10.0 mi Calm Calm - N/A   Clear
3:47 AM 42.8 °F 37.4 °F 81% 30.17 in 10.0 mi Calm Calm - N/A   Clear
4:47 AM 41.0 °F 37.4 °F 87% 30.18 in 10.0 mi Calm Calm - N/A   Clear
5:47 AM 41.0 °F 37.4 °F 87% 30.02 in 10.0 mi Calm Calm - N/A   Partly Cloudy
6:47 AM 39.2 °F 35.6 °F 87% 30.19 in 10.0 mi Calm Calm - N/A   Scattered Clouds
7:48 AM 41.0 °F 37.4 °F 87% 30.21 in 7.0 mi Calm Calm - N/A   Mostly Cloudy
8:49 AM 44.6 °F 41.0 °F 87% 30.11 in 6.0 mi Calm Calm - N/A   Mostly Cloudy
9:45 AM 55.4 °F 41.0 °F 58% 30.23 in 6.0 mi Calm Calm - N/A   Scattered Clouds
10:49 AM 64.4 °F 39.2 °F 40% 30.24 in 6.0 mi Calm Calm - N/A   Partly Cloudy
11:45 AM 66.2 °F 35.6 °F 32% 30.02 in 6.0 mi North 3.5 mph - N/A   Partly Cloudy
12:49 PM 73.4 °F 32.0 °F 22% 30.16 in 8.0 mi Calm Calm - N/A   Scattered Clouds
1:49 PM 75.2 °F 24.8 °F 15% 30.12 in 10.0 mi SSE 3.5 mph - N/A   Mostly Cloudy
2:49 PM 77.0 °F 23.0 °F 13% 29.86 in 10.0 mi NNE 10.4 mph - N/A   Mostly Cloudy
3:42 PM 78.8 °F 26.6 °F 15% 30.07 in 10.0 mi Calm Calm - N/A   Mostly Cloudy
4:50 PM 78.8 °F 24.8 °F 14% 30.06 in 10.0 mi ESE 10.4 mph - N/A   Scattered Clouds
5:43 PM 77.0 °F 23.0 °F 13% 29.86 in 10.0 mi SE 6.9 mph - N/A   Partly Cloudy
6:42 PM 71.6 °F 26.6 °F 19% 30.06 in 10.0 mi SSE 3.5 mph - N/A   Partly Cloudy
7:43 PM 59.0 °F 24.8 °F 27% 30.08 in 10.0 mi SSW 4.6 mph - N/A   Clear
8:47 PM 57.2 °F 28.4 °F 33% 29.97 in 10.0 mi West 3.5 mph - N/A   Clear
9:42 PM 55.4 °F 28.4 °F 36% 30.12 in 10.0 mi Calm Calm - N/A   Clear
10:54 PM 53.6 °F 32.0 °F 44% 30.14 in 10.0 mi ESE 3.5 mph - N/A   Clear
11:51 PM 50.0 °F 32.0 °F 50% 29.95 in 10.0 mi Calm Calm - N/A   Clear